This demonstration page uses our WeatherBlox Daily Observations layout. Learn more.

Left ArrowRight Arrow

Hourly Observations for November 21, 2020

Temp ( °F °C ) Dew Point ( °F °C ) Humidity (%) Winds ( mph kmh ) Pressure ( in mb ) Visibility ( mi km ) Precip ( " mm )
12:53 am 00:53 Cloudy 55 12.8 52 11.1 90 90 Calm 30.39 1029 10 16 0.00 0.00
1:53 am 01:53 Cloudy 54 12.2 53 11.7 97 97 Calm 30.40 1029 10 16 0.00 0.00
2:53 am 02:53 Cloudy with Light Rain 53 11.7 52 11.1 96 96 Calm 30.40 1029 7 11 0.00 0.00
3:16 am 03:16 Cloudy with Light Rain 53 11.7 52 11.1 96 96 Calm 30.40 1030 6 10 0.00 0.00
3:53 am 03:53 Cloudy with Light Rain 53 11.7 51 10.6 93 93 N 3 6 30.40 1030 5 8 0.01 0.25
4:53 am 04:53 Cloudy 52 11.1 47 8.3 83 83 N 9 15 30.41 1030 10 16 0.00 0.00
5:37 am 05:37 Cloudy with Light Rain 49 9.4 46 7.8 90 90 N 7 11 30.44 1031 5 8 0.00 0.00
5:53 am 05:53 Cloudy with Light Rain 48 8.9 44 6.7 86 86 NNE 6 9 30.44 1031 6 10 0.00 0.00
6:53 am 06:53 Cloudy with Light Rain 46 7.8 43 6.1 89 89 NNE 9 15 30.46 1031 4 6 0.03 0.76
7:31 am 07:31 Cloudy with Light Rain 46 7.8 43 6.1 89 89 NE 5 7 30.47 1032 5 8 0.06 1.52
7:53 am 07:53 Cloudy with Light Rain 46 7.8 43 6.1 89 89 N 3 6 30.47 1032 7 11 0.07 1.78
8:00 am 08:00 Cloudy with Light Rain 46 7.8 43 6.1 89 89 NNE 6 9 30.48 1032 6 10 0.00 0.00
8:53 am 08:53 Cloudy 46 7.8 42 5.6 86 86 Calm 30.49 1032 10 16 0.02 0.51
9:53 am 09:53 Cloudy 46 7.8 42 5.6 86 86 N 5 7 30.49 1033 10 16 0.00 0.00
10:53 am 10:53 Cloudy 46 7.8 42 5.6 86 86 NNE 7 11 30.49 1033 10 16 0.00 0.00
11:53 am 11:53 Cloudy 47 8.3 41 5 80 80 ENE 6 9 30.48 1032 10 16 0.00 0.00
12:53 pm 12:53 Cloudy 47 8.3 42 5.6 83 83 NNE 6 9 30.46 1032 10 16 0.00 0.00
1:53 pm 13:53 Cloudy 47 8.3 42 5.6 83 83 NNE 7 11 30.45 1031 10 16 0.00 0.00
2:03 pm 14:03 Cloudy 47 8.3 42 5.6 83 83 N 6 9 30.46 1032 10 16 0.00 0.00
2:53 pm 14:53 Cloudy 47 8.3 42 5.6 83 83 NNE 7 11 30.44 1031 10 16 0.00 0.00
3:53 pm 15:53 Cloudy with Light Rain 47 8.3 43 6.1 86 86 N 5 7 30.44 1031 9 14 0.00 0.00
4:53 pm 16:53 Cloudy 46 7.8 43 6.1 89 89 NNE 6 9 30.44 1031 8 13 0.00 0.00
5:53 pm 17:53 Cloudy 46 7.8 43 6.1 89 89 NE 3 6 30.44 1031 9 14 0.00 0.00
6:21 pm 18:21 Cloudy 47 8.3 42 5.6 83 83 ENE 6 9 30.43 1031 10 16 0.00 0.00
6:53 pm 18:53 Cloudy 47 8.3 43 6.1 86 86 E 6 9 30.43 1031 9 14 0.00 0.00
7:05 pm 19:05 Cloudy 47 8.3 43 6.1 86 86 E 6 9 30.43 1031 9 14 0.00 0.00
7:19 pm 19:19 Cloudy 47 8.3 43 6.1 86 86 ENE 6 9 30.42 1030 9 14 0.00 0.00
7:53 pm 19:53 Cloudy 47 8.3 42 5.6 83 83 E 8 13 30.42 1030 9 14 0.00 0.00
8:13 pm 20:13 Cloudy 47 8.3 42 5.6 83 83 E 8 13 30.41 1030 10 16 0.00 0.00
8:53 pm 20:53 Cloudy with Light Rain 46 7.8 42 5.6 86 86 ENE 7 11 30.40 1029 8 13 0.00 0.00
9:53 pm 21:53 Cloudy 46 7.8 42 5.6 86 86 ENE 8 13 30.38 1029 9 14 0.00 0.00
10:22 pm 22:22 Cloudy 46 7.8 42 5.6 86 86 ENE 6 9 30.38 1029 10 16 0.00 0.00
10:53 pm 22:53 Cloudy 46 7.8 42 5.6 86 86 ENE 5 7 30.37 1029 8 13 0.00 0.00
11:20 pm 23:20 Cloudy 46 7.8 42 5.6 86 86 ENE 6 9 30.36 1028 7 11 0.00 0.00
11:53 pm 23:53 Cloudy 46 7.8 42 5.6 86 86 ENE 6 9 30.34 1027 9 14 0.00 0.00

Powered by AerisWeather